Skip Page Navigation
NASA JPL Caltech
NASA Logo - Jet Propulsion Laboratory + View the NASA Portal
+ Near-Earth Object (NEO) Program
Search JPL
JPL Home Earth Solar System Stars & Galaxies Technology
JPL Solar System Dynamics
BODIES ORBITS EPHEMERIDES TOOLS PHYSICAL DATA DISCOVERY FAQ SITE MAP
JPL Small-Body Database Browser
Search: [ help ]  
302831 (2003 FH)
Classification: Apollo [NEO, PHA]          SPK-ID: 2302831
Ephemeris | Orbit Diagram | Orbital Elements | Physical Parameters | Discovery Circumstances | Close-Approach Data ]

[ hide orbit diagram ]
Orbit Diagram
Note: Make sure you have Java enabled on your browser to see the applet. This applet is provided as a 3D orbit visualization tool. The applet was implemented using 2-body methods, and hence should not be used for determining accurate long-term trajectories (over several years or decades) or planetary encounter circumstances. For accurate long-term ephemerides, please instead use our Horizons system.
Orbit Viewer

Additional Notes: the orbits shown in the applet are color coded. The planets are white lines, and the asteroid/comet is a blue line. The bright white line indicates the portion of the orbit that is above the ecliptic plane, and the darker portion is below the ecliptic plane. Likewise for the asteroid/comet orbit, the light blue indicates the portion above the ecliptic plane, and the dark blue the portion below the ecliptic plane.

Orbit Viewer applet originally written and kindly provided by Osamu Ajiki (AstroArts), and further modified by Ron Baalke (JPL).


Orbital Elements at Epoch 2456400.5 (2013-Apr-18.0) TDB
Reference: JPL 48 (heliocentric ecliptic J2000)
 Element Value Uncertainty (1-sigma)   Units 
e .5407215166635657 9.0039e-08  
a 1.389182632629391 1.5435e-08 AU
q .6380216925913419 1.1872e-07 AU
i 25.79772274882217 1.6238e-05 deg
node 24.22780449776248 5.4514e-06 deg
peri 274.274325406357 1.1091e-05 deg
M 356.6459388265534 8.1944e-06 deg
tp 2456406.071933481944
(2013-Apr-23.57193348)
1.3695e-05 JED
period 598.0499310447921
1.64
9.967e-06
2.729e-08
d
yr
n .6019564275696524 1.0032e-08 deg/d
Q 2.140343572667441 2.378e-08 AU
  Orbit Determination Parameters
   # obs. used (total)      318  
   # delay obs. used      2  
   # Doppler obs. used      1  
   data-arc span      3165 days (8.67 yr)  
   first obs. used      2003-03-23  
   last obs. used      2011-11-21  
   planetary ephem.      DE405  
   SB-pert. ephem.      SB405-CPV-2  
   condition code      0  
   fit RMS      .36173  
   data source      ORB  
   producer      OSOD/JPL  
   solution date      2012-Aug-31 11:51:15  

Additional Information
 Earth MOID = .012785 AU 
 T_jup = 4.528 
[ show covariance matrix ]

Ephemeris | Orbit Diagram | Orbital Elements | Physical Parameters | Discovery Circumstances | Close-Approach Data ]

Physical Parameter Table
Parameter Symbol Value Units Sigma Reference Notes
absolute magnitude H 18.997 mag .51766 46 autocmod 2.5b
rotation period rot_per 13.94 h n/a Asteroid Lightcurve DataBase (Rev. 2013-May-01) Published Reference List:
[Skiff, B.A. (2011) Posting on CALL web site. http://www.minorplanet.info/call.html]

302831 (2003 FH)          Discovered 2003-Mar-23 by NEAT at Palomar (644)
Reference: 20111110/Numbers.arcLast Updated: 2011-11-14

[ show close-approach data ]
Ephemeris | Orbit Diagram | Orbital Elements | Physical Parameters | Discovery Circumstances | Close-Approach Data ]
ABOUT SSD CREDITS/AWARDS PRIVACY/COPYRIGHT GLOSSARY LINKS
FirstGov 2013-May-18 13:24 UT
(server date/time)  
NASA Home Page
Site Manager:   Donald K. Yeomans
Webmaster  Alan B. Chamberlin